Overview Statistics Trail Chart Weather Telemetry Raw packets
 

This is the latest recevied weather packets stored in our database for station/object Dunnningn. If no packets are shown the sender has not sent any weather packets the latest 10 day(s).

<< 8 9 10 11 12 13 14 >>
Time Temp. Humidity Pressure Rain* Wind** Luminosity Snow
1788197530 18.33° C 65% 1019 hPa 4.32 mm - - -
1788195731 20° C 58% 1019.2 hPa 4.32 mm - - -
1788193930 21.67° C 51% 1017.9 hPa 4.32 mm - - -
1788192131 21.67° C 51% 1017.6 hPa 4.32 mm - - -
1788190331 22.22° C 49% 1017.5 hPa 4.32 mm - - -
1788188531 22.78° C 49% 1017.3 hPa 4.32 mm - - -
1788186730 22.22° C 54% 1017.2 hPa 4.32 mm - - -
1788184931 22.22° C 51% 1017.6 hPa 4.32 mm - - -
1788183131 22.22° C 52% 1017.5 hPa 4.32 mm - - -
1788181331 22.22° C 52% 1017.5 hPa 4.32 mm - - -
1788179535 22.22° C 52% 1017.8 hPa 4.32 mm - - -
1788177731 21.11° C 55% 1017.7 hPa 4.32 mm - - -
1788175931 21.11° C 53% 1017.8 hPa 4.32 mm - - -
1788174130 21.11° C 57% 1017.7 hPa 4.32 mm - - -
1788172331 20.56° C 54% 1017.6 hPa 4.32 mm - - -
1788170531 20.56° C 59% 1017.7 hPa 4.32 mm - - -
1788168730 20° C 61% 1017.4 hPa 4.32 mm - - -
1788166930 18.89° C 63% 1017.4 hPa 4.32 mm - - -
1788165130 18.89° C 69% 1017.2 hPa 4.32 mm - - -
1788163331 17.78° C 71% 1017 hPa 4.32 mm - - -
1788161530 17.22° C 74% 1016.7 hPa 4.32 mm - - -
1788159730 15.56° C 82% 1016.5 hPa 4.32 mm - - -
1788157930 15.56° C 85% 1016.4 hPa 4.32 mm - - -
1788156130 15° C 92% 1016.2 hPa 4.32 mm - - -
1788154330 14.44° C 92% 1016.2 hPa 4.32 mm - - -

* Rain since midnight (hover to see other rain measurements)
** Current wind speed in m/s (hover to see current wind gust speed)